Date String (YYYY-MM-DD hh:mm:ss) UTC,Instrument flags,Ambient pressure (hPa),Sample flow (lpm),Bypass flow (lpm),Sample temperature (°C),Ambient temperature (°C),ASC tube jacket temperature (°C),LED temperature (°C),Box temperature (°C),Sample RH (%),Span deviation,Mass concentration (μg/m³),Mass concentration (μg/m³),Mass concentration (μg/m³)
DateTimeUTC,F1_M11,P_M11,Q1_M11,Q2_M11,T1_M11,T2_M11,T3_M11,T4_M11,T5_M11,U1_M11,ZSPAN_M11,X0_M11,X2_M11,X1_M11
2023-04-08 00:00:00,,0829.4,5.00,0.00,26.9,25.6,00.0,35.2,28.5,06.8,0000.0,0010.83,0003.78,0003.09
2023-04-08 00:01:00,,0829.4,4.99,0.00,26.9,25.6,00.0,35.2,28.5,06.7,0000.0,0010.73,0003.82,0003.09
2023-04-08 00:02:00,,0829.5,5.00,0.00,26.9,25.6,00.0,35.2,28.5,06.7,0000.0,0010.76,0003.86,0003.14
2023-04-08 00:03:00,,0829.4,5.00,0.00,26.9,25.6,00.0,35.2,28.5,06.6,0000.0,0010.28,0003.82,0003.17
2023-04-08 00:04:00,,0829.4,5.00,0.00,26.9,25.6,00.0,35.2,28.5,06.8,0000.0,0009.41,0003.84,0003.19
2023-04-08 00:05:00,,0829.5,5.00,0.00,26.9,25.5,00.0,35.3,28.5,06.8,0000.0,0009.51,0003.86,0003.21
2023-04-08 00:06:00,,0829.5,5.00,0.00,26.9,25.5,00.0,35.3,28.5,06.6,0000.0,0009.50,0003.88,0003.20
2023-04-08 00:07:00,,0829.5,5.00,0.00,26.9,25.5,00.0,35.3,28.5,06.8,0000.0,0009.45,0003.87,0003.20
2023-04-08 00:08:00,,0829.5,5.00,0.00,26.9,25.5,00.0,35.3,28.5,07.0,0000.0,0009.31,0003.86,0003.19
2023-04-08 00:09:00,,0829.5,5.00,0.00,26.9,25.5,00.0,35.3,28.6,07.2,0000.0,0010.11,0003.91,0003.18
2023-04-08 00:10:00,,0829.4,5.01,0.00,26.9,25.5,00.0,35.3,28.5,06.9,0000.0,0010.19,0003.93,0003.17
2023-04-08 00:11:00,,0829.5,5.00,0.00,27.0,25.5,00.0,35.3,28.5,07.0,0000.0,0010.15,0003.94,0003.16
2023-04-08 00:12:00,,0829.5,5.00,0.00,26.9,25.5,00.0,35.3,28.5,07.0,0000.0,0010.23,0003.90,0003.15
2023-04-08 00:13:00,,0829.5,5.00,0.00,26.9,25.5,00.0,35.3,28.5,06.8,0000.0,0010.23,0003.89,0003.14
2023-04-08 00:14:00,,0829.5,5.00,0.00,27.0,25.5,00.0,35.3,28.5,06.5,0000.0,0010.24,0003.87,0003.12
2023-04-08 00:15:00,,0829.5,4.99,0.00,27.0,25.5,00.0,35.3,28.5,06.8,0000.0,0010.42,0003.85,0003.10
2023-04-08 00:16:00,,0829.5,4.99,0.00,27.0,25.5,00.0,35.3,28.5,07.0,0000.0,0010.39,0003.88,0003.09
2023-04-08 00:17:00,,0829.5,4.99,0.00,27.0,25.5,00.0,35.3,28.5,06.8,0000.0,0010.05,0003.91,0003.10
2023-04-08 00:18:00,,0829.5,5.00,0.00,27.0,25.4,00.0,35.3,28.5,07.1,0000.0,0010.88,0003.93,0003.12
2023-04-08 00:19:00,,0829.5,5.00,0.00,26.9,25.4,00.0,35.3,28.5,07.2,0000.0,0011.68,0003.97,0003.12
2023-04-08 00:20:00,,0829.5,5.00,0.00,26.9,25.4,00.0,35.3,28.5,07.3,0000.0,0011.21,0003.93,0003.13
2023-04-08 00:21:00,,0829.5,5.02,0.00,26.9,25.4,00.0,35.3,28.5,07.6,0000.0,0011.74,0003.90,0003.15
2023-04-08 00:22:00,,0829.5,5.00,0.00,26.9,25.4,00.0,35.3,28.5,07.6,0000.0,0012.06,0003.93,0003.17
2023-04-08 00:23:00,,0829.5,5.00,0.00,26.9,25.4,00.0,35.3,28.5,07.5,0000.0,0012.24,0003.94,0003.16
2023-04-08 00:24:00,,0829.6,5.01,0.00,26.9,25.4,00.0,35.3,28.5,06.8,0000.0,0012.96,0003.91,0003.16
2023-04-08 00:25:00,,0829.6,5.00,0.00,26.9,25.4,00.0,35.3,28.5,07.0,0000.0,0013.21,0003.95,0003.16
2023-04-08 00:26:00,,0829.6,5.00,0.00,26.9,25.4,00.0,35.3,28.5,07.2,0000.0,0014.27,0003.94,0003.15
2023-04-08 00:27:00,,0829.6,5.00,0.00,26.9,25.4,00.0,35.3,28.5,07.6,0000.0,0014.37,0003.92,0003.13
2023-04-08 00:28:00,,0829.6,4.99,0.00,26.9,25.4,00.0,35.3,28.5,07.7,0000.0,0014.00,0003.87,0003.11
2023-04-08 00:29:00,,0829.6,5.01,0.00,26.9,25.4,00.0,35.3,28.5,07.8,0000.0,0013.71,0003.84,0003.08
2023-04-08 00:30:00,,0829.6,5.01,0.00,26.9,25.4,00.0,35.3,28.5,08.1,0000.0,0013.59,0003.79,0003.05
2023-04-08 00:31:00,,0829.6,5.01,0.00,26.9,25.4,00.0,35.3,28.5,08.6,0000.0,0014.17,0003.81,0003.02
2023-04-08 00:32:00,,0829.6,5.00,0.00,26.9,25.4,00.0,35.3,28.5,08.2,0000.0,0013.39,0003.83,0003.00
2023-04-08 00:33:00,,0829.6,4.98,0.00,26.9,25.4,00.0,35.3,28.5,07.7,0000.0,0012.95,0003.81,0002.98
2023-04-08 00:34:00,,0829.6,5.00,0.00,26.9,25.4,00.0,35.3,28.5,07.6,0000.0,0012.50,0003.79,0002.96
2023-04-08 00:35:00,,0829.6,5.00,0.00,26.9,25.4,00.0,35.3,28.5,07.1,0000.0,0011.77,0003.78,0002.96
2023-04-08 00:36:00,,0829.6,4.99,0.00,26.9,25.4,00.0,35.3,28.5,07.7,0000.0,0012.00,0003.81,0003.03
2023-04-08 00:37:00,,0829.6,5.00,0.00,26.9,25.3,00.0,35.3,28.5,07.8,0000.0,0011.55,0003.90,0003.16
2023-04-08 00:38:00,,0829.6,5.00,0.00,26.9,25.3,00.0,35.3,28.4,07.3,0000.0,0011.46,0003.95,0003.22
2023-04-08 00:39:00,,0829.6,5.01,0.00,26.9,25.3,00.0,35.3,28.4,07.4,0000.0,0011.43,0004.01,0003.27
2023-04-08 00:40:00,,0829.6,5.01,0.00,26.9,25.3,00.0,35.3,28.4,07.5,0000.0,0011.47,0004.06,0003.31
2023-04-08 00:41:00,,0829.6,5.00,0.00,26.9,25.3,00.0,35.3,28.4,08.2,0000.0,0011.11,0004.16,0003.39
2023-04-08 00:42:00,,0829.6,4.99,0.00,26.9,25.3,00.0,35.3,28.4,08.0,0000.0,0010.67,0004.18,0003.42
2023-04-08 00:43:00,,0829.6,5.00,0.00,26.9,25.3,00.0,35.3,28.4,07.9,0000.0,0010.79,0004.22,0003.44
2023-04-08 00:44:00,,0829.6,5.00,0.00,26.9,25.2,00.0,35.3,28.4,08.0,0000.0,0010.90,0004.23,0003.46
2023-04-08 00:45:00,,0829.6,5.00,0.00,26.9,25.2,00.0,35.3,28.4,08.1,0000.0,0011.01,0004.24,0003.49
2023-04-08 00:46:00,,0829.6,5.00,0.00,26.9,25.2,00.0,35.3,28.4,08.2,0000.0,0011.37,0004.29,0003.51
2023-04-08 00:47:00,,0829.6,5.01,0.00,26.9,25.2,00.0,35.3,28.4,08.3,0000.0,0012.25,0004.29,0003.51
2023-04-08 00:48:00,,0829.6,5.00,0.00,26.9,25.2,00.0,35.3,28.4,08.4,0000.0,0011.75,0004.21,0003.45
2023-04-08 00:49:00,,0829.6,4.99,0.00,26.9,25.2,00.0,35.3,28.3,08.4,0000.0,0011.55,0004.14,0003.41
2023-04-08 00:50:00,,0829.6,5.00,0.00,26.8,25.2,00.0,35.2,28.3,08.4,0000.0,0011.90,0004.15,0003.40
2023-04-08 00:51:00,,0829.6,4.98,0.00,26.8,25.2,00.0,35.2,28.4,08.4,0000.0,0012.14,0004.16,0003.39
2023-04-08 00:52:00,,0829.7,4.99,0.00,26.8,25.2,00.0,35.2,28.4,08.5,0000.0,0012.08,0004.14,0003.36
2023-04-08 00:53:00,,0829.6,5.00,0.00,26.8,25.2,00.0,35.2,28.3,08.4,0000.0,0012.46,0004.17,0003.36
2023-04-08 00:54:00,,0829.7,5.01,0.00,26.8,25.2,00.0,35.2,28.4,08.4,0000.0,0012.26,0004.13,0003.37
2023-04-08 00:55:00,,0829.6,5.01,0.00,26.8,25.2,00.0,35.2,28.4,08.4,0000.0,0011.97,0004.11,0003.37
2023-04-08 00:56:00,,0829.6,4.99,0.00,26.8,25.2,00.0,35.2,28.3,08.4,0000.0,0012.25,0004.10,0003.37
2023-04-08 00:57:00,,0829.6,4.99,0.00,26.8,25.2,00.0,35.2,28.3,08.1,0000.0,0012.48,0004.08,0003.38
2023-04-08 00:58:00,,0829.6,5.00,0.00,26.8,25.2,00.0,35.2,28.4,08.2,0000.0,0012.15,0004.11,0003.40
2023-04-08 00:59:00,,0829.6,4.98,0.00,26.8,25.2,00.0,35.2,28.3,08.0,0000.0,0011.54,0004.15,0003.41
